RH
75 62 71 68 63 49 46 44 47 47 44 43 43 42 42 45 41 37 35 30 11 9 8 7 8 10 12 12 12 10 7 7 7 7 7 7 7 6 6 6 6 7 7 13 25 30 29 25 22
91 78 71 70 59 53 52 52 52 50 49 49 48 46 45 48 45 40 36 32 11 8 9 8 8 9 11 8 8 8 7 7 7 7 7 7 7 7 6 6 6 6 7 6 7 7 13 24 29
88 99 78 70 64 54 61 62 57 57 55 52 50 49 46 48 49 43 39 36 14 8 10 8 8 13 9 8 8 8 8 8 8 8 8 7 7 7 7 7 6 6 7 7 7 7 6 7 7
96 95 84 71 60 61 63 67 62 62 63 60 56 52 54 53 53 46 43 38 16 8 9 8 8 8 8 8 8 8 8 8 8 8 7 7 7 7 7 6 6 6 6 7 7 7 8 7 7
77 75 91 65 62 68 78 78 74 70 68 64 61 58 55 54 54 51 46 39 18 9 9 9 9 9 9 9 8 8 8 8 7 6 6 6 6 6 6 6 6 6 6 7 8 8 9 9 9
36 64 61 65 62 75 82 83 81 73 68 64 62 59 58 57 57 53 45 36 13 9 9 9 9 9 9 9 8 8 7 6 6 6 6 6 6 6 6 6 6 7 7 7 8 9 11 13 13
14 30 36 62 65 80 80 83 83 77 72 70 68 64 67 67 65 53 43 25 10 10 10 10 10 10 9 8 8 7 7 7 7 6 6 6 6 6 6 6 6 7 8 9 9 11 13 14 14
13 18 42 42 62 88 86 81 80 78 73 69 68 65 70 81 54 40 40 15 10 11 12 11 10 10 8 8 7 7 7 7 6 6 6 6 6 6 7 7 8 9 11 12 13 15 16 15 14
20 13 18 24 58 90 90 86 81 77 70 63 62 70 81 59 34 34 24 13 12 13 13 12 10 9 8 8 8 7 7 7 8 7 7 6 6 7 8 9 11 13 16 19 20 18 16 13 11
28 14 12 18 56 83 90 88 84 74 58 61 61 68 54 33 31 25 19 22 13 14 13 11 9 8 8 8 8 8 9 8 8 7 7 8 10 13 16 17 18 19 18 18 19 18 14 10 8
31 22 11 13 38 70 70 66 59 51 60 54 59 66 44 26 33 32 53 21 16 15 12 10 9 9 9 9 9 9 8 7 7 7 8 7 7 11 12 16 17 18 16 16 16 15 13 11 10
28 26 15 12 21 47 35 39 42 58 56 60 46 24 18 26 42 48 22 19 16 14 12 10 10 10 10 10 10 8 7 7 8 9 6 6 6 6 9 12 13 15 15 15 15 14 14 14 14
24 29 26 14 14 33 30 36 54 62 50 45 21 14 20 35 43 37 36 33 19 25 13 14 12 14 17 12 9 8 7 7 8 9 7 9 8 9 10 13 14 15 15 13 11 9 8 7 7
20 30 34 22 14 24 38 47 56 59 44 30 18 11 22 37 31 22 20 18 20 25 14 13 14 13 14 11 9 8 7 7 8 8 6 7 10 14 15 15 14 12 10 9 8 7 7 10 11
18 29 37 26 16 21 40 51 58 52 38 22 14 10 22 30 34 26 24 30 28 28 18 31 27 17 13 11 9 8 7 7 9 8 7 10 15 17 16 13 12 10 9 7 9 12 8 3 3
24 30 37 27 18 26 45 58 58 50 30 16 9 9 22 24 23 22 23 30 25 16 29 31 19 17 12 10 10 8 7 8 8 8 7 9 12 13 12 12 12 11 11 11 7 4 3 3 4
26 27 34 26 19 34 55 51 58 44 23 10 9 13 17 17 18 20 20 18 16 16 18 18 16 13 12 12 10 8 7 9 9 9 9 12 15 16 16 16 14 11 10 8 4 4 4 4 4
25 31 34 26 29 43 60 52 44 36 14 8 11 15 17 16 16 20 20 19 17 15 16 16 13 14 14 12 9 7 10 10 10 12 12 12 12 12 12 12 10 12 8 4 5 4 4 4 4
33 35 30 28 45 58 58 52 32 17 9 12 13 16 19 19 20 21 20 19 18 18 16 14 14 14 12 9 8 9 11 11 13 14 14 13 12 11 11 11 13 10 5 6 4 5 4 3 4
36 32 33 41 49 56 52 29 18 10 9 14 15 18 20 21 20 21 21 20 18 16 15 15 14 11 8 8 10 12 12 13 15 14 12 11 12 13 16 18 13 6 6 5 6 6 4 5 6
31 31 35 36 48 44 28 16 9 10 12 16 19 21 22 23 22 21 19 18 16 16 14 12 9 9 10 12 13 15 15 15 14 12 11 16 21 22 21 11 6 6 8 5 6 5 5 8 10
28 29 30 33 32 26 19 11 8 12 16 20 21 22 22 22 20 19 18 16 14 11 9 10 10 10 12 15 18 17 15 14 14 15 19 24 25 20 8 6 6 7 8 5 5 5 5 8 14
30 27 25 24 21 18 13 10 9 8 11 15 16 16 15 14 14 13 11 9 10 10 11 11 12 14 18 18 15 16 16 16 18 19 21 22 15 7 6 6 7 7 8 7 4 5 5 7 12
32 29 26 21 18 15 12 10 10 10 9 8 8 9 9 9 9 10 10 10 11 12 13 15 17 17 15 16 16 16 14 12 13 9 8 7 6 6 6 7 7 6 7 8 4 4 5 5 9
30 28 25 22 18 14 12 11 11 10 10 11 11 11 11 10 11 11 12 12 14 16 18 17 15 16 16 15 9 7 7 8 8 8 8 7 6 6 6 9 6 6 6 9 5 4 5 5 7
27 25 23 21 19 17 16 14 13 13 13 12 12 13 12 12 12 12 14 15 16 15 16 16 15 14 9 6 7 8 10 12 12 11 9 8 7 7 7 10 5 5 5 9 10 4 4 4 5
20 18 18 16 15 15 14 13 13 12 13 13 13 14 15 14 14 15 14 14 15 16 14 11 7 6 6 7 9 14 24 27 21 13 11 9 8 8 12 8 6 5 6 8 13 9 6 5 5
16 16 16 15 14 14 14 14 14 14 17 18 17 15 14 14 14 14 16 16 11 7 7 7 6 7 10 12 15 13 14 31 37 27 17 16 16 16 12 9 7 6 6 8 15 15 11 10 6
17 16 15 15 15 14 14 15 16 22 23 20 16 15 15 16 15 13 9 6 6 6 6 7 10 16 16 15 16 12 10 12 21 39 42 44 38 22 12 10 9 6 5 6 12 15 15 15 13
22 22 22 28 32 28 23 15 18 17 16 15 14 13 11 8 6 5 5 6 7 10 15 15 11 11 12 11 9 7 6 6 9 11 16 21 17 15 12 10 8 7 5 6 9 12 14 15 14
Wind_Speed
58 55 49 46 45 44 40 33 27 23 20 16 13 11 9 9 8 8 9 11 9 6 3 3 2 1 0 1 2 3 4 5 6 7 8 9 10 11 12 13 13 12 12 13 12 12 13 12 12
61 58 55 51 50 47 40 34 30 26 21 18 15 14 12 13 10 11 12 12 10 8 6 5 4 2 1 1 2 4 5 6 7 8 9 10 11 12 13 15 15 16 15 14 15 15 15 16 15
66 60 59 56 54 50 42 33 31 26 22 19 17 15 14 15 11 14 13 14 12 9 7 6 5 4 2 3 4 5 6 7 9 10 12 12 13 15 16 17 18 18 19 19 18 18 17 17 18
69 65 64 61 57 51 40 34 30 26 22 19 18 17 16 17 14 17 15 15 14 12 9 8 7 6 5 4 5 7 8 9 10 12 13 14 14 16 17 18 20 21 21 23 22 22 21 21 21
73 70 66 64 61 52 42 35 32 29 25 21 18 17 18 18 16 18 17 17 17 14 11 10 9 8 6 6 7 8 10 11 12 13 14 15 16 17 19 20 21 24 25 25 25 25 25 24 25
76 73 71 67 63 52 44 36 31 28 24 21 20 18 17 17 18 20 19 18 19 15 13 12 11 9 7 7 8 10 11 13 14 15 17 18 19 21 21 22 24 26 27 28 29 28 27 26 26
77 74 70 66 64 52 47 39 32 27 23 22 22 22 24 21 22 23 21 20 19 17 15 13 11 9 8 8 9 11 12 14 17 18 20 21 22 23 24 25 26 27 28 29 30 30 29 29 28
78 74 72 70 63 53 46 40 33 29 26 24 24 23 23 23 24 24 22 21 19 17 15 12 10 10 9 9 11 13 15 17 19 21 23 24 26 26 27 29 30 31 32 32 32 31 30 29 29
79 75 73 69 62 55 47 41 36 32 28 25 24 23 22 21 23 21 22 21 20 18 16 13 11 10 10 10 13 15 17 19 21 23 25 27 29 31 32 34 36 35 35 33 32 32 31 30 29
77 75 72 67 59 54 47 42 37 33 29 27 25 27 21 22 23 23 21 21 22 19 16 14 12 11 11 14 15 18 19 22 25 27 29 31 32 32 32 31 32 31 31 31 32 32 31 31 31
75 73 71 65 56 51 45 41 35 29 30 29 26 21 22 26 24 25 24 23 22 18 15 14 13 12 14 17 19 21 23 25 28 31 34 33 32 31 31 30 30 29 30 31 31 33 34 35 36
71 72 68 60 53 46 41 37 33 30 29 31 30 27 26 25 25 26 24 21 20 16 16 14 14 15 17 19 22 24 26 28 31 33 32 31 30 30 31 31 32 32 33 33 34 35 37 38 41
69 69 63 55 49 43 38 36 33 31 31 32 30 28 27 25 22 23 24 25 21 18 16 18 18 19 21 24 25 27 29 30 32 35 34 31 29 29 30 31 33 34 36 37 39 40 42 43 44
65 61 55 49 46 41 38 36 34 33 32 32 29 28 27 25 26 26 25 21 19 21 20 21 21 22 23 25 27 30 31 32 34 34 33 32 30 30 31 33 35 37 39 41 44 45 46 45 45
58 56 50 44 42 42 38 37 35 34 32 30 29 28 28 28 27 28 25 25 24 24 24 24 24 24 25 29 31 32 32 34 34 35 33 32 32 33 34 36 39 42 44 45 45 44 44 43 45
52 52 48 45 42 41 38 36 34 33 31 30 29 28 30 31 30 30 29 28 27 26 27 26 28 27 29 31 32 34 35 35 36 35 35 35 36 37 38 40 43 45 45 45 44 43 44 44 43
51 51 48 42 42 40 38 37 36 33 31 30 29 29 30 30 30 29 27 27 27 29 29 29 29 29 31 32 34 36 37 36 36 37 38 38 39 40 42 44 46 46 46 45 44 44 44 44 43
49 46 44 40 40 40 37 36 35 32 30 30 29 30 29 30 30 28 28 29 29 31 31 31 31 31 32 35 37 38 38 38 39 39 40 41 42 43 44 45 45 46 46 44 43 42 43 46 46
45 37 36 38 36 36 35 35 34 32 31 30 30 31 29 29 28 28 29 30 30 32 32 33 34 34 36 37 38 39 40 41 41 42 43 43 44 45 46 46 46 46 43 41 39 42 47 51 48
39 34 34 33 34 34 35 34 32 31 31 31 31 30 29 29 28 29 29 30 31 33 34 35 36 38 38 39 40 43 43 44 44 45 46 46 47 47 46 44 43 41 39 37 34 35 39 34 26
36 32 31 31 32 32 33 32 31 31 31 30 30 29 28 28 28 29 29 30 32 34 35 38 39 38 40 41 45 46 46 47 47 48 48 46 44 42 40 40 38 37 36 34 31 32 29 25 17
31 30 29 29 29 29 30 30 29 30 30 30 29 28 28 28 28 29 30 31 33 35 36 35 38 41 44 47 48 48 48 49 49 47 45 41 40 40 39 37 36 34 34 33 32 29 26 25 18
27 24 24 24 24 25 25 25 26 27 28 28 28 28 29 28 28 28 29 30 31 33 36 40 43 47 49 49 49 50 50 49 47 46 44 42 42 40 37 35 34 32 32 31 29 28 22 20 13
25 21 20 19 19 19 19 18 19 20 19 19 20 21 22 23 24 25 27 31 35 39 42 46 48 48 49 50 51 50 50 49 48 47 46 46 44 41 37 36 32 31 32 31 29 27 24 18 17
22 19 17 15 14 13 13 13 13 12 13 14 15 17 20 23 27 30 34 38 42 44 46 47 47 49 49 49 50 53 55 55 54 52 50 47 44 41 39 34 32 31 32 31 28 25 23 21 19
19 16 13 11 11 12 10 10 12 12 15 18 20 23 25 29 33 37 41 44 45 45 46 47 47 48 49 51 52 53 56 56 55 52 49 45 43 41 38 33 32 32 32 31 30 26 22 20 21
17 14 13 11 9 11 10 10 12 17 21 24 28 31 34 36 40 43 44 45 45 45 45 47 50 51 52 48 39 39 43 44 43 44 42 41 41 38 34 33 33 34 33 31 30 28 25 23 21
13 13 13 12 12 14 14 16 21 25 29 32 34 36 39 42 44 44 44 43 43 45 48 51 50 46 38 32 36 39 41 39 35 33 34 34 34 32 31 31 32 34 33 30 29 29 28 28 25
20 18 16 17 19 22 24 28 29 31 31 34 37 40 41 43 44 44 43 44 47 49 50 46 35 31 31 35 38 41 44 40 34 31 31 30 29 29 31 32 33 33 33 32 31 31 30 29 28
21 24 25 27 27 28 29 29 26 30 34 37 40 41 43 44 44 46 47 47 43 39 36 32 32 34 38 41 44 44 43 43 39 35 31 30 30 32 33 34 35 36 36 35 35 36 35 33 33
Wind_Direction
220 222 221 219 218 217 215 209 214 220 216 220 233 246 264 285 295 309 316 307 290 279 276 281 284 280 271 1 15 28 28 22 9 3 355 352 350 349 347 344 340 333 319 311 307 305 302 301 301
219 220 221 222 221 220 214 210 214 218 218 221 234 244 260 277 285 292 299 300 283 271 263 261 242 235 225 8 359 347 344 348 343 337 339 336 334 333 332 331 330 329 327 320 309 300 295 293 291
217 220 220 222 223 221 216 210 216 219 222 224 233 240 254 269 279 286 287 284 272 261 257 254 234 217 233 270 301 318 326 330 329 330 328 328 324 321 320 319 318 319 320 317 313 308 299 291 287
214 216 221 222 224 222 217 213 213 221 228 229 234 243 253 262 272 277 277 271 259 250 244 244 236 235 246 265 292 307 315 322 324 325 323 324 322 319 317 318 315 313 314 314 311 307 302 297 293
213 215 219 221 222 222 218 214 217 221 229 233 238 243 249 261 271 271 265 259 251 241 235 235 236 239 250 270 293 305 315 320 323 324 324 322 321 319 317 316 316 314 313 310 309 306 302 298 294
213 213 217 218 222 220 219 215 217 222 227 231 235 235 247 262 265 259 252 249 242 232 231 230 235 244 263 281 300 310 316 319 319 321 319 318 319 317 316 315 315 313 312 310 309 307 304 300 295
212 213 216 218 221 217 220 220 220 222 227 234 242 240 243 257 263 252 246 240 234 227 226 226 234 251 269 286 298 306 309 312 314 317 316 316 315 314 312 310 311 309 307 306 304 304 302 301 297
210 211 215 218 219 219 220 221 223 225 232 240 243 240 242 247 248 246 243 231 225 224 228 230 241 253 267 285 296 302 305 309 313 314 313 312 309 307 303 304 305 305 304 302 302 301 299 297 295
208 211 214 215 218 219 219 223 225 230 236 236 236 239 238 238 240 242 233 227 221 221 226 230 239 252 268 283 291 297 303 307 310 309 307 305 304 304 303 305 306 305 306 305 304 301 299 295 293
208 210 214 215 215 218 220 223 227 231 234 230 232 235 218 231 231 231 221 230 223 222 227 233 242 255 273 283 291 297 303 306 309 308 306 306 306 305 306 308 307 307 306 305 304 300 295 291 290
206 210 212 215 215 217 217 221 222 222 223 222 223 220 220 225 226 226 237 223 222 224 231 236 247 260 274 286 291 298 307 309 310 314 310 308 305 305 306 307 309 308 308 306 302 298 294 290 288
204 209 212 214 214 214 212 214 210 211 217 220 219 218 217 219 231 220 211 219 224 230 235 245 258 270 275 285 299 304 307 310 315 316 314 310 309 307 306 305 305 303 301 299 296 294 291 290 289
201 207 211 212 212 210 206 209 205 209 216 219 222 218 213 218 227 210 218 218 228 243 245 255 262 273 286 292 295 302 306 311 314 315 310 308 307 306 305 302 302 300 298 297 295 293 291 290 289
200 204 208 209 208 207 204 204 205 208 215 219 222 219 215 213 211 216 218 220 222 235 247 254 262 268 274 290 297 301 305 310 312 310 307 306 303 300 299 298 298 296 296 295 296 296 293 292 290
196 200 203 204 204 205 203 204 204 209 215 219 220 218 216 212 212 219 220 228 232 240 246 257 266 275 286 290 295 300 305 307 306 307 304 301 298 296 297 297 296 297 298 297 296 294 294 293 293
191 196 201 199 199 201 203 205 205 211 217 221 219 216 212 213 218 221 226 233 239 242 252 261 267 279 285 289 295 300 303 304 304 304 304 300 297 296 296 296 297 298 299 298 296 296 295 293 291
188 196 198 198 197 199 201 205 207 211 219 220 216 215 211 216 221 225 232 236 242 248 257 263 274 281 286 293 299 301 301 300 298 299 298 295 295 295 295 297 298 298 297 297 298 297 295 293 292
184 192 195 195 196 198 200 207 210 214 219 218 217 212 212 218 225 231 236 243 249 256 263 271 279 284 291 296 298 299 298 297 295 296 296 295 295 295 296 297 298 297 298 299 300 300 297 293 288
178 179 187 192 192 198 203 211 213 215 216 217 216 213 217 223 229 235 242 248 255 262 270 277 282 291 294 295 298 297 294 293 293 295 295 297 297 297 297 298 298 300 301 304 307 309 304 293 279
164 170 180 189 193 199 206 213 215 216 215 216 217 217 222 229 235 241 248 256 263 270 275 283 290 292 293 295 295 291 290 292 294 296 297 297 296 297 298 300 301 301 301 304 313 321 331 320 288
158 167 179 189 194 203 209 214 214 216 216 216 220 223 229 236 243 248 254 262 270 277 284 287 289 289 292 291 288 288 289 293 295 296 296 295 297 298 299 299 300 299 304 305 308 319 330 323 306
154 167 177 187 197 207 211 213 215 218 219 221 226 230 236 243 251 259 267 274 279 282 284 284 287 288 286 285 286 289 293 294 293 293 293 295 296 298 299 300 300 299 304 305 305 313 326 321 308
147 163 175 188 197 206 212 214 216 221 226 230 235 242 250 257 264 270 274 276 276 279 281 282 282 281 283 287 290 291 291 290 290 289 290 292 295 297 296 296 295 294 301 303 304 304 313 315 296
144 156 169 183 193 205 213 217 222 228 233 240 247 254 261 267 269 270 271 272 273 274 274 275 279 284 286 289 290 291 289 288 287 287 288 291 293 294 292 291 288 291 299 302 303 299 296 297 278
142 154 162 168 187 197 210 221 227 229 233 236 239 247 255 261 264 267 268 269 268 271 276 280 284 286 288 290 292 292 291 289 286 286 287 289 291 290 289 287 284 288 292 298 298 299 296 286 272
137 151 164 169 188 195 202 220 223 221 228 235 243 250 256 259 263 265 266 268 273 277 281 285 287 289 291 293 296 295 294 291 285 282 284 286 287 287 286 281 280 284 291 297 294 292 294 292 283
138 153 160 168 179 191 213 226 227 237 241 246 250 254 259 263 265 267 271 274 281 286 287 287 288 291 294 294 297 308 314 310 291 284 284 284 284 283 277 277 281 281 289 291 293 288 290 292 292
158 161 187 198 210 214 226 237 243 246 248 252 257 262 265 268 271 276 280 283 285 286 287 288 294 294 291 286 298 308 311 312 307 292 285 284 281 275 270 279 284 285 285 285 290 290 287 287 287
182 193 208 223 233 235 237 243 247 254 262 265 265 267 271 276 279 281 285 286 286 287 288 293 295 293 287 293 299 303 306 307 306 301 293 289 285 276 277 281 286 286 284 281 284 285 285 285 285
218 226 229 239 244 249 256 251 273 271 270 272 274 276 277 278 281 283 285 286 286 284 287 291 291 291 290 294 297 299 300 302 301 301 298 293 290 285 284 285 284 283 282 279 281 282 284 286 285